Home   Weather   Tracy   Past weeks
Flag for USA

Past Weather in Tracy, California, USA — Yesterday and Last 2 Weeks

Now
94 °F

Sunny.


Feels Like: 91 °F
Forecast: 92 / 64 °F
Wind: 14 mph from West

Location: Stockton Metropolitan Airport

Current Time: Jul 15, 2019 at 6:24:36 pm

Latest Report: Jul 15, 2019 at 5:55 pm


Visibility: 10 mi

Pressure: 29.86 "Hg

Humidity: 23%

Dew Point: 51 °F

Location of TracyLocation

Past Weather in Tracy — Graph

°F

Tracy Temperature Yesterday

Maximum temperature yesterday: 95 °F (at 1:55 pm)
Minimum temperature yesterday: 67 °F (at 3:55 am)
Average temperature yesterday: 81 °F

High & Low Weather Summary for the Past Weeks

 TemperatureHumidityPressure
High99 °F (Jul 13, 4:55 pm)81% (Jul 10, 4:55 am)30.06 "Hg (Jul 10, 4:55 am)
Low57 °F (Jul 1, 5:55 am)14% (Jun 30, 5:55 pm)29.77 "Hg (Jul 12, 5:55 pm)
Average76 °F45%29.91 "Hg
* Reported Jun 30 4:55 pm — Jul 15 4:55 pm, Tracy. Weather by CustomWeather, © 2019

Note: Actual official high and low records may vary slightly from our data, if they occured in-between our weather recording intervals... More about our weather records

Advertising

Tracy Weather History for the Previous 24 Hours

Scroll right to see more
 ConditionsComfort  
Time TempWeatherWind HumidityBarometerVisibility
4:55 pm
Mon, Jul 15
97 °FSunny.17 mph20%29.87 "Hg10 mi
3:55 pm97 °FSunny.13 mph23%29.88 "Hg10 mi
2:55 pm97 °FSunny.13 mph22%29.90 "Hg10 mi
1:55 pm96 °FSunny.12 mph23%29.93 "Hg10 mi
12:55 pm94 °FSunny.13 mph24%29.94 "Hg10 mi
11:55 am91 °FSunny.12 mph25%29.96 "Hg10 mi
10:55 am87 °FSunny.8 mph29%29.96 "Hg10 mi
9:55 am84 °FSunny.12 mph33%29.96 "Hg10 mi
8:55 am80 °FSunny.10 mph34%29.96 "Hg10 mi
7:55 am76 °FSunny.5 mph45%29.96 "Hg10 mi
6:55 am69 °FSunny.No wind59%29.95 "Hg10 mi
5:55 am63 °FSunny.No wind68%29.94 "Hg10 mi
4:55 am67 °FClear.3 mph59%29.93 "Hg10 mi
3:55 am66 °FClear.3 mph56%29.93 "Hg10 mi
2:55 am70 °FClear.No wind49%29.93 "Hg10 mi
1:55 am73 °FClear.6 mph43%29.94 "Hg10 mi
12:55 am72 °FClear.3 mph44%29.94 "Hg10 mi
11:55 pm
Sun, Jul 14
76 °FClear.6 mph39%29.94 "Hg10 mi
10:55 pm76 °FClear.3 mph39%29.94 "Hg10 mi
9:55 pm78 °FClear.5 mph36%29.94 "Hg10 mi
8:55 pm82 °FClear.10 mph32%29.93 "Hg10 mi
7:55 pm87 °FSunny.10 mph27%29.91 "Hg10 mi
6:55 pm92 °FSunny.12 mph23%29.91 "Hg10 mi
Weather by CustomWeather, © 2019

See weather overview

LIVE PARTIAL LUNAR ECLIPSE – Watch the eclipse as it happens